| time (UTC) | temp C | wind direction | speed KPH | gust KPH | rain 1hr cm | rain 24hr cm | rain mn cm | humidity % | barometer mb |
| 20260506104533 | 8 | 0 | 0.0 | 0.0 | 0.00 | 0.20 | 0.00 | 96 | 1019.4 |
| 20260506103031 | 7 | 0 | 0.0 | 0.0 | 0.00 | 0.20 | 0.00 | 95 | 1019.3 |
| 20260506101534 | 7 | 0 | 0.0 | 0.0 | 0.00 | 0.20 | 0.00 | 95 | 1019.2 |
| 20260506100034 | 7 | 0 | 0.0 | 0.0 | 0.00 | 0.20 | 0.00 | 95 | 1019.0 |
| 20260506094543 | 8 | 0 | 0.0 | 0.0 | 0.00 | 0.23 | 0.00 | 95 | 1019.0 |
| 20260506093032 | 8 | 0 | 0.0 | 0.0 | 0.00 | 0.23 | 0.00 | 95 | 1018.9 |
| 20260506091532 | 8 | 0 | 0.0 | 0.0 | 0.00 | 0.23 | 0.00 | 95 | 1018.8 |
| 20260506090033 | 7 | 0 | 0.0 | 0.0 | 0.00 | 0.23 | 0.00 | 94 | 1018.8 |
| 20260506084535 | 8 | 0 | 0.0 | 0.0 | 0.00 | 0.30 | 0.00 | 94 | 1018.7 |
| 20260506083037 | 8 | 0 | 0.0 | 0.0 | 0.00 | 0.30 | 0.00 | 94 | 1018.7 |
| 20260506081532 | 9 | 0 | 0.0 | 0.0 | 0.00 | 0.30 | 0.00 | 94 | 1018.8 |
| 20260506073041 | 8 | 0 | 0.0 | 0.0 | 0.00 | 0.36 | 0.00 | 95 | 1019.6 |
| 20260506071534 | 8 | 0 | 0.0 | 0.0 | 0.00 | 0.36 | 0.00 | 95 | 1019.2 |
| 20260506061535 | 9 | 0 | 0.0 | 0.0 | 0.00 | 0.48 | 0.36 | 93 | 1018.2 |
| 20260506044543 | 9 | 0 | 0.0 | 0.0 | 0.00 | 0.53 | 0.36 | 92 | 1017.4 |
| 20260506043033 | 10 | 0 | 0.0 | 0.0 | 0.00 | 0.53 | 0.36 | 92 | 1017.2 |
| 20260506041532 | 10 | 0 | 0.0 | 0.0 | 0.00 | 0.53 | 0.36 | 91 | 1017.2 |
| 20260506040054 | 10 | 0 | 0.0 | 0.0 | 0.00 | 0.53 | 0.36 | 91 | 1017.3 |
| 20260506034535 | 10 | 0 | 0.0 | 0.0 | 0.00 | 0.53 | 0.36 | 90 | 1016.9 |
| 20260506033034 | 10 | 0 | 0.0 | 0.0 | 0.00 | 0.53 | 0.36 | 91 | 1016.7 |
| 20260506031544 | 10 | 0 | 0.0 | 0.0 | 0.00 | 0.53 | 0.36 | 90 | 1016.5 |
| 20260506030033 | 10 | 0 | 0.0 | 0.0 | 0.00 | 0.53 | 0.36 | 90 | 1016.4 |
| 20260506024535 | 11 | 0 | 0.0 | 0.0 | 0.00 | 0.53 | 0.36 | 89 | 1016.4 |
| 20260506023032 | 11 | 0 | 0.0 | 0.0 | 0.00 | 0.53 | 0.36 | 89 | 1016.3 |
| 20260506021534 | 11 | 0 | 0.0 | 0.0 | 0.00 | 0.53 | 0.36 | 88 | 1016.2 |
| 20260506020033 | 11 | 0 | 0.0 | 0.0 | 0.00 | 0.53 | 0.36 | 87 | 1016.2 |
| 20260506014534 | 11 | 0 | 0.0 | 0.0 | 0.00 | 0.53 | 0.36 | 86 | 1016.0 |
| 20260506013031 | 11 | 0 | 0.0 | 1.6 | 0.00 | 0.53 | 0.36 | 85 | 1016.1 |
| 20260506011537 | 11 | 0 | 0.0 | 0.0 | 0.00 | 0.53 | 0.36 | 85 | 1016.2 |
| 20260506010036 | 11 | 0 | 0.0 | 0.0 | 0.00 | 0.53 | 0.36 | 84 | 1016.1 |
| 20260506004531 | 12 | 0 | 0.0 | 0.0 | 0.00 | 0.53 | 0.36 | 84 | 1016.1 |
| 20260506003037 | 12 | 0 | 0.0 | 0.0 | 0.00 | 0.53 | 0.36 | 84 | 1016.0 |
| 20260506001533 | 11 | 0 | 0.0 | 1.6 | 0.00 | 0.53 | 0.36 | 86 | 1016.0 |
| 20260506000033 | 11 | 0 | 0.0 | 1.6 | 0.00 | 0.53 | 0.36 | 87 | 1015.9 |
| 20260505234540 | 11 | 143 | 0.0 | 3.2 | 0.00 | 0.53 | 0.36 | 86 | 1015.8 |
| 20260505233034 | 11 | 0 | 0.0 | 1.6 | 0.00 | 0.53 | 0.36 | 84 | 1015.8 |
| 20260505231545 | 11 | 0 | 0.0 | 1.6 | 0.00 | 0.53 | 0.36 | 85 | 1015.7 |
| 20260505230034 | 11 | 0 | 0.0 | 1.6 | 0.00 | 0.53 | 0.36 | 86 | 1015.7 |
| 20260505224532 | 10 | 0 | 0.0 | 1.6 | 0.00 | 0.64 | 0.36 | 84 | 1015.7 |
| 20260505223039 | 10 | 0 | 0.0 | 1.6 | 0.00 | 0.64 | 0.36 | 86 | 1015.8 |
| 20260505221532 | 11 | 0 | 0.0 | 1.6 | 0.00 | 0.64 | 0.36 | 87 | 1015.7 |
| 20260505220040 | 11 | 0 | 0.0 | 1.6 | 0.00 | 0.64 | 0.36 | 86 | 1015.8 |
| 20260505214539 | 11 | 0 | 0.0 | 3.2 | 0.00 | 0.76 | 0.36 | 87 | 1015.8 |
| 20260505213035 | 10 | 0 | 0.0 | 3.2 | 0.00 | 0.76 | 0.36 | 87 | 1015.9 |
| 20260505211534 | 10 | 0 | 0.0 | 1.6 | 0.00 | 0.76 | 0.36 | 85 | 1015.9 |
| 20260505210033 | 10 | 0 | 0.0 | 1.6 | 0.00 | 0.76 | 0.36 | 86 | 1015.9 |
| 20260505204536 | 10 | 0 | 0.0 | 1.6 | 0.00 | 0.79 | 0.36 | 87 | 1015.8 |
| 20260505203034 | 10 | 126 | 0.0 | 4.8 | 0.00 | 0.79 | 0.36 | 85 | 1015.8 |
| 20260505201535 | 10 | 151 | 1.6 | 4.8 | 0.00 | 0.79 | 0.36 | 87 | 1015.7 |
| 20260505200040 | 10 | 0 | 0.0 | 4.8 | 0.00 | 0.79 | 0.36 | 88 | 1015.9 |
| 20260505194537 | 10 | 0 | 0.0 | 4.8 | 0.00 | 0.81 | 0.36 | 88 | 1015.9 |
| 20260505193031 | 10 | 0 | 0.0 | 1.6 | 0.00 | 0.81 | 0.36 | 88 | 1015.9 |
| 20260505191532 | 10 | 109 | 0.0 | 6.4 | 0.00 | 0.81 | 0.36 | 88 | 1015.8 |
| 20260505190038 | 10 | 0 | 0.0 | 4.8 | 0.00 | 0.81 | 0.36 | 87 | 1015.8 |
| 20260505184534 | 10 | 70 | 1.6 | 11.3 | 0.00 | 0.86 | 0.36 | 87 | 1015.5 |
| 20260505183035 | 10 | 91 | 0.0 | 8.0 | 0.00 | 0.86 | 0.36 | 89 | 1015.5 |
| 20260505181535 | 10 | 91 | 0.0 | 8.0 | 0.00 | 0.86 | 0.36 | 90 | 1015.4 |
| 20260505180040 | 9 | 135 | 3.2 | 8.0 | 0.00 | 0.86 | 0.36 | 90 | 1015.3 |
| 20260505174539 | 9 | 176 | 0.0 | 9.7 | 0.00 | 0.86 | 0.36 | 90 | 1015.2 |
| 20260505173032 | 9 | 65 | 3.2 | 9.7 | 0.00 | 0.86 | 0.36 | 89 | 1014.8 |
| 20260505171535 | 9 | 143 | 3.2 | 8.0 | 0.00 | 0.86 | 0.36 | 91 | 1014.8 |
| 20260505170033 | 9 | 104 | 0.0 | 1.6 | 0.00 | 0.86 | 0.36 | 91 | 1014.9 |
| 20260505164535 | 9 | 169 | 0.0 | 6.4 | 0.00 | 0.89 | 0.36 | 92 | 1014.6 |
| 20260505163036 | 9 | 84 | 0.0 | 4.8 | 0.03 | 0.89 | 0.36 | 91 | 1014.8 |
| 20260505161536 | 8 | 91 | 0.0 | 3.2 | 0.08 | 0.89 | 0.36 | 94 | 1014.8 |
| 20260505153032 | 8 | 0 | 0.0 | 1.6 | 0.10 | 0.86 | 0.33 | 95 | 1014.5 |
| 20260505151534 | 8 | 0 | 0.0 | 1.6 | 0.05 | 0.81 | 0.28 | 96 | 1014.6 |
| 20260505124538 | 7 | 0 | 0.0 | 0.0 | 0.05 | 1.04 | 0.20 | 95 | 1013.9 |
| 20260505123038 | 7 | 0 | 0.0 | 0.0 | 0.03 | 1.02 | 0.18 | 95 | 1013.9 |
| 20260505121535 | 7 | 0 | 0.0 | 0.0 | 0.00 | 0.99 | 0.15 | 95 | 1013.9 |
| 20260505120031 | 7 | 0 | 0.0 | 0.0 | 0.00 | 0.99 | 0.15 | 95 | 1013.7 |
| 20260505114531 | 7 | 0 | 0.0 | 0.0 | 0.00 | 1.02 | 0.15 | 94 | 1013.7 |
| 20260505113031 | 7 | 0 | 0.0 | 1.6 | 0.00 | 1.02 | 0.15 | 94 | 1013.9 |
| 20260505111538 | 7 | 0 | 0.0 | 0.0 | 0.00 | 1.02 | 0.15 | 94 | 1014.0 |